Time,TemperatureF,DewpointF,PressureIn,WindDirection,WindDirectionDegrees,WindSpeedMPH,WindSpeedGustMPH,Humidity,HourlyPrecipIn,Conditions,Clouds,dailyrainin,SoftwareType,DateUTC
2013-04-13 00:02:00,74.0,66.1,29.85,NE,47,1.0,-999.0,76,0.00,,,0.00,PyWeather,2013-04-13 10:02:00,
2013-04-13 00:07:00,73.6,66.1,29.85,NE,46,2.0,-999.0,77,0.00,,,0.00,PyWeather,2013-04-13 10:07:00,
2013-04-13 00:13:00,73.0,65.8,29.85,NNE,22,3.0,-999.0,78,0.00,,,0.00,PyWeather,2013-04-13 10:13:00,
2013-04-13 00:18:00,72.7,65.9,29.85,NNE,15,3.0,-999.0,79,0.00,,,0.00,PyWeather,2013-04-13 10:18:00,
2013-04-13 00:23:00,72.6,66.2,29.85,NNE,15,2.0,-999.0,80,0.00,,,0.00,PyWeather,2013-04-13 10:23:00,
2013-04-13 00:28:00,72.6,66.2,29.85,NNE,16,0.0,-999.0,80,0.00,,,0.00,PyWeather,2013-04-13 10:28:00,
2013-04-13 00:33:00,72.8,66.4,29.85,NNE,16,0.0,-999.0,80,0.00,,,0.00,PyWeather,2013-04-13 10:33:00,
2013-04-13 00:38:00,72.8,66.4,29.85,NNE,15,0.0,-999.0,80,0.00,,,0.00,PyWeather,2013-04-13 10:38:00,
2013-04-13 00:43:00,72.7,66.3,29.86,NNE,16,0.0,-999.0,80,0.00,,,0.00,PyWeather,2013-04-13 10:43:00,
2013-04-13 00:48:00,72.7,66.3,29.86,NNE,16,0.0,-999.0,80,0.00,,,0.00,PyWeather,2013-04-13 10:48:00,
2013-04-13 00:53:00,72.6,66.2,29.86,NNE,16,0.0,-999.0,80,0.00,,,0.00,PyWeather,2013-04-13 10:53:00,
2013-04-13 00:58:00,72.6,66.2,29.86,NNE,16,0.0,-999.0,80,0.00,,,0.00,PyWeather,2013-04-13 10:58:00,
2013-04-13 01:03:00,72.6,66.2,29.86,NNE,15,0.0,-999.0,80,0.00,,,0.00,PyWeather,2013-04-13 11:03:00,
2013-04-13 01:08:00,72.6,66.2,29.86,NNE,17,0.0,-999.0,80,0.00,,,0.00,PyWeather,2013-04-13 11:08:00,
2013-04-13 01:13:00,72.6,66.2,29.86,NNE,15,0.0,-999.0,80,0.00,,,0.00,PyWeather,2013-04-13 11:13:00,
2013-04-13 01:18:00,72.5,65.7,29.86,NNE,15,0.0,-999.0,79,0.00,,,0.00,PyWeather,2013-04-13 11:18:00,
2013-04-13 01:24:00,72.5,65.7,29.86,NNE,15,0.0,-999.0,79,0.00,,,0.00,PyWeather,2013-04-13 11:24:00,
2013-04-13 01:29:00,72.4,65.6,29.86,NNE,15,0.0,-999.0,79,0.00,,,0.00,PyWeather,2013-04-13 11:29:00,
2013-04-13 01:34:00,72.4,65.6,29.86,NNE,16,0.0,-999.0,79,0.00,,,0.00,PyWeather,2013-04-13 11:34:00,
2013-04-13 01:39:00,72.3,65.5,29.86,NNE,16,0.0,-999.0,79,0.00,,,0.00,PyWeather,2013-04-13 11:39:00,
2013-04-13 01:44:00,72.3,65.5,29.86,NNE,15,0.0,-999.0,79,0.00,,,0.00,PyWeather,2013-04-13 11:44:00,
2013-04-13 01:49:00,72.2,65.4,29.86,NNE,16,0.0,-999.0,79,0.00,,,0.00,PyWeather,2013-04-13 11:49:00,
2013-04-13 01:54:00,71.9,65.1,29.86,NNE,15,0.0,-999.0,79,0.00,,,0.00,PyWeather,2013-04-13 11:54:00,
2013-04-13 01:59:00,71.7,65.3,29.86,NNE,16,0.0,-999.0,80,0.00,,,0.00,PyWeather,2013-04-13 11:59:00,
2013-04-13 02:04:00,71.3,64.9,29.86,NNE,16,0.0,-999.0,80,0.00,,,0.00,PyWeather,2013-04-13 12:04:00,
2013-04-13 02:10:00,71.1,64.7,29.86,NNE,15,0.0,-999.0,80,0.00,,,0.00,PyWeather,2013-04-13 12:10:00,
2013-04-13 02:15:00,70.9,64.5,29.85,NNE,16,0.0,-999.0,80,0.00,,,0.00,PyWeather,2013-04-13 12:15:00,
2013-04-13 02:20:00,70.8,64.4,29.84,NNE,15,0.0,-999.0,80,0.00,,,0.00,PyWeather,2013-04-13 12:20:00,
2013-04-13 02:25:00,70.6,64.6,29.84,NNE,16,0.0,-999.0,81,0.00,,,0.00,PyWeather,2013-04-13 12:25:00,